GALAXY 16 (G-16)

Last updated on Thu Oct 30 2025 00:02:47 GMT+0000 (Coordinated Universal Time)

1 29236U 06023A 25302.40318899 -.00000117 00000+0 00000+0 0 9995 2 29236 0.0227 220.3004 0002542 353.2586 230.5887 1.00270114 70658
UTC large
Height (km)
Speed (km/s)
/
Latitude / Longitude
Inclination (degrees)
Orbital Period (minutes)
Azimuth
Elevation
Range (km)
Doppler Factor

Next 0 passes for location: London (51.5072 / 0.1276)

Sorry there are no passes over London.